KX4O-13 Weather Reports


Display with metric or nautical units.
time (UTC)temp
F
wind
direction
speed
MPH
gust
MPH
rain 1hr
in
rain 24hr
in
rain mn
in
humidity
%
barometer
mb
20260504050555 44 22 0.0 1.0 0.00 0.00 0.00 79 1015.8
20260504045555 44 22 0.0 0.0 0.00 0.00 0.00 77 1015.7
20260504045055 44 22 0.0 0.0 0.00 0.00 0.00 77 1015.7
20260504044555 44 22 0.0 1.0 0.00 0.00 0.00 77 1015.7
20260504044055 44 22 0.0 2.0 0.00 0.00 0.00 77 1015.8
20260504043555 44 22 1.0 0.0 0.00 0.00 0.00 77 1015.7
20260504043057 43 22 1.0 2.0 0.00 0.00 0.00 78 1015.7
20260504042555 43 22 1.0 1.0 0.00 0.00 0.00 77 1015.7
20260504042055 43 22 1.0 2.0 0.00 0.00 0.00 76 1015.6
20260504041555 43 22 0.0 1.0 0.00 0.00 0.00 77 1015.8
20260504041055 43 22 1.0 2.0 0.00 0.00 0.00 78 1015.7
20260504040555 43 22 1.0 1.0 0.00 0.00 0.00 78 1015.7
20260504040055 43 22 0.0 1.0 0.00 0.00 0.00 78 1015.6
20260504035555 43 22 0.0 1.0 0.00 0.00 0.00 76 1015.6
20260504035057 42 22 1.0 1.0 0.00 0.00 0.00 76 1015.6
20260504034555 43 22 1.0 1.0 0.00 0.00 0.00 76 1015.7
20260504034055 42 22 1.0 1.0 0.00 0.00 0.00 75 1015.6
20260504033555 42 22 1.0 2.0 0.00 0.00 0.00 74 1015.6
20260504033057 42 22 1.0 2.0 0.00 0.00 0.00 73 1015.7
20260504032555 42 22 1.0 2.0 0.00 0.00 0.00 71 1015.8
20260504032055 42 22 1.0 1.0 0.00 0.00 0.00 70 1015.8
20260504031555 43 22 1.0 2.0 0.00 0.00 0.00 66 1015.8
20260504031055 43 22 1.0 2.0 0.00 0.00 0.00 65 1015.7
20260504030555 43 172 1.0 1.0 0.00 0.00 0.00 65 1015.7
20260504030055 43 172 0.0 2.0 0.00 0.00 0.00 67 1015.8
20260504025555 43 172 0.0 2.0 0.00 0.00 0.00 68 1015.7
20260504025057 43 172 0.0 0.0 0.00 0.00 0.00 68 1015.7
20260504024555 43 172 0.0 0.0 0.00 0.00 0.00 68 1015.7
20260504024055 43 172 0.0 0.0 0.00 0.00 0.00 68 1015.6
20260504023555 43 172 0.0 0.0 0.00 0.00 0.00 69 1015.7
20260504023055 43 172 0.0 0.0 0.00 0.00 0.00 70 1015.7
20260504022555 43 172 0.0 0.0 0.00 0.00 0.00 69 1015.6
20260504022055 44 172 0.0 0.0 0.00 0.00 0.00 69 1015.5
20260504021555 43 172 0.0 0.0 0.00 0.00 0.00 68 1015.6
20260504021057 43 172 0.0 0.0 0.00 0.00 0.00 67 1015.6
20260504020555 43 172 0.0 0.0 0.00 0.00 0.00 68 1015.6
20260504020055 44 172 0.0 0.0 0.00 0.00 0.00 67 1015.5
20260504015555 43 172 0.0 0.0 0.00 0.00 0.00 69 1015.4
20260504015055 43 172 0.0 0.0 0.00 0.00 0.00 68 1015.4
20260504014555 43 172 0.0 0.0 0.00 0.00 0.00 69 1015.4
20260504014055 43 172 0.0 2.0 0.00 0.00 0.00 67 1015.3
20260504013555 44 172 1.0 0.0 0.00 0.00 0.00 65 1015.4
20260504013057 44 172 1.0 5.0 0.00 0.00 0.00 66 1015.3
20260504012555 44 173 0.0 5.0 0.00 0.00 0.00 65 1015.2
20260504012055 45 5 0.0 0.0 0.00 0.00 0.00 62 1015.2
20260504011555 46 5 0.0 0.0 0.00 0.00 0.00 63 1015.0
20260504011055 46 5 0.0 0.0 0.00 0.00 0.00 62 1014.9
20260504010555 46 5 0.0 0.0 0.00 0.00 0.00 63 1014.9
20260504010055 46 5 0.0 0.0 0.00 0.00 0.00 61 1014.8
20260504005555 47 5 0.0 0.0 0.00 0.00 0.00 60 1014.8
20260504005057 47 5 0.0 0.0 0.00 0.00 0.00 60 1014.9
20260504004555 47 5 0.0 0.0 0.00 0.00 0.00 61 1014.7
20260504004055 47 5 0.0 0.0 0.00 0.00 0.00 62 1014.7
20260504003556 47 5 0.0 0.0 0.00 0.00 0.00 60 1014.7
20260504003055 48 5 0.0 1.0 0.00 0.00 0.00 58 1014.6
20260504002555 49 5 0.0 2.0 0.00 0.00 0.00 54 1014.5
20260504002055 50 5 0.0 2.0 0.00 0.00 0.00 54 1014.6
20260504001555 50 5 0.0 2.0 0.00 0.00 0.00 54 1014.5
20260504001057 51 5 0.0 0.0 0.00 0.00 0.00 53 1014.5
20260504000555 51 5 0.0 0.0 0.00 0.00 0.00 52 1014.6
20260504000055 52 5 0.0 1.0 0.00 0.00 0.00 48 1014.5
20260503235555 53 5 0.0 2.0 0.00 0.00 0.00 46 1014.5
20260503235055 54 5 1.0 2.0 0.00 0.00 0.00 43 1014.5
20260503234555 55 5 0.0 3.0 0.00 0.00 0.00 40 1014.5
20260503234055 56 304 0.0 2.0 0.00 0.00 0.00 40 1014.4
20260503233555 57 263 0.0 0.0 0.00 0.00 0.00 40 1014.3
20260503233057 57 263 0.0 0.0 0.00 0.00 0.00 35 1014.4
20260503232556 58 263 0.0 2.0 0.00 0.00 0.00 40 1014.4
20260503232055 58 263 0.0 2.0 0.00 0.00 0.00 37 1014.4
20260503231556 59 263 1.0 2.0 0.00 0.00 0.00 33 1014.3
20260503231055 59 261 1.0 4.0 0.00 0.00 0.00 34 1014.2
20260503230555 59 269 1.0 4.0 0.00 0.00 0.00 34 1014.2
20260503230055 59 242 1.0 4.0 0.00 0.00 0.00 33 1014.3
20260503225556 59 275 1.0 4.0 0.00 0.00 0.00 33 1014.2
20260503225056 60 315 1.0 2.0 0.00 0.00 0.00 32 1014.2
20260503224555 61 250 2.0 4.0 0.00 0.00 0.00 29 1014.1
20260503224056 61 291 2.0 6.0 0.00 0.00 0.00 30 1014.2
20260503223556 62 269 1.0 4.0 0.00 0.00 0.00 30 1014.3
20260503223056 63 329 2.0 4.0 0.00 0.00 0.00 30 1014.3
20260503222556 62 279 2.0 6.0 0.00 0.00 0.00 32 1014.4
20260503222056 62 249 3.0 10.0 0.00 0.00 0.00 29 1014.2
20260503221556 62 329 2.0 8.0 0.00 0.00 0.00 31 1014.4
20260503221056 63 214 1.0 7.0 0.00 0.00 0.00 28 1014.3
20260503220556 63 177 2.0 3.0 0.00 0.00 0.00 30 1014.3
20260503220056 63 312 2.0 7.0 0.00 0.00 0.00 31 1014.4
20260503215556 63 213 2.0 7.0 0.00 0.00 0.00 31 1014.4
20260503215056 62 263 2.0 5.0 0.00 0.00 0.00 30 1014.4
20260503214556 63 228 2.0 7.0 0.00 0.00 0.00 30 1014.5
20260503214056 63 254 2.0 5.0 0.00 0.00 0.00 34 1014.5
20260503213556 63 265 3.0 7.0 0.00 0.00 0.00 28 1014.4
20260503213056 62 214 5.0 10.0 0.00 0.00 0.00 27 1014.5
20260503212556 62 331 4.0 11.0 0.00 0.00 0.00 29 1014.6
20260503212056 63 292 3.0 8.0 0.00 0.00 0.00 28 1014.6
20260503211556 63 310 3.0 11.0 0.00 0.00 0.00 29 1014.7
20260503211056 63 320 3.0 9.0 0.00 0.00 0.00 28 1014.7
20260503210556 62 315 4.0 8.0 0.00 0.00 0.00 35 1014.8
20260503210056 62 184 4.0 11.0 0.00 0.00 0.00 29 1014.6
20260503205556 63 319 3.0 11.0 0.00 0.00 0.00 31 1014.7
20260503205056 62 219 3.0 8.0 0.00 0.00 0.00 29 1014.7
20260503204556 63 254 2.0 7.0 0.00 0.00 0.00 30 1014.7
20260503204056 64 269 3.0 7.0 0.00 0.00 0.00 30 1014.8
20260503203556 63 240 4.0 10.0 0.00 0.00 0.00 31 1014.8
20260503203056 62 325 5.0 11.0 0.00 0.00 0.00 28 1014.9
20260503202556 62 257 5.0 13.0 0.00 0.00 0.00 30 1014.9
20260503202056 62 284 6.0 12.0 0.00 0.00 0.00 29 1015.0
20260503201556 62 325 4.0 16.0 0.00 0.00 0.00 31 1015.0
20260503201056 63 260 2.0 7.0 0.00 0.00 0.00 30 1015.0
20260503200556 62 252 4.0 5.0 0.00 0.00 0.00 31 1015.0
20260503200056 62 351 5.0 13.0 0.00 0.00 0.00 31 1015.2
20260503195556 63 271 4.0 10.0 0.00 0.00 0.00 31 1015.2
20260503195056 62 251 3.0 10.0 0.00 0.00 0.00 31 1015.2
20260503194556 62 273 2.0 5.0 0.00 0.00 0.00 32 1015.3
20260503194056 62 200 3.0 9.0 0.00 0.00 0.00 34 1015.3
20260503193556 62 272 4.0 9.0 0.00 0.00 0.00 35 1015.5
20260503193056 62 211 4.0 9.0 0.00 0.00 0.00 34 1015.7
20260503192556 62 321 5.0 8.0 0.00 0.00 0.00 35 1015.6
20260503192056 61 327 6.0 13.0 0.00 0.00 0.00 33 1015.7
20260503191556 60 270 5.0 12.0 0.00 0.00 0.00 34 1015.8
20260503191056 61 254 4.0 12.0 0.00 0.00 0.00 33 1015.9
20260503190556 62 270 5.0 8.0 0.00 0.00 0.00 34 1015.9
20260503190056 62 322 5.0 14.0 0.00 0.00 0.00 32 1016.0
20260503185556 61 349 2.0 10.0 0.00 0.00 0.00 37 1016.0
20260503185056 61 198 4.0 7.0 0.00 0.00 0.00 33 1016.1
20260503184556 60 326 5.0 13.0 0.00 0.00 0.00 35 1016.3
20260503184056 62 340 5.0 14.0 0.00 0.00 0.00 34 1016.2
20260503183556 60 309 5.0 13.0 0.00 0.00 0.00 37 1016.2
20260503183056 60 274 5.0 15.0 0.00 0.00 0.00 34 1016.3
20260503182556 60 277 3.0 10.0 0.00 0.00 0.00 35 1016.2
20260503182056 60 297 3.0 8.0 0.00 0.00 0.00 38 1016.3
20260503181556 60 238 4.0 10.0 0.00 0.00 0.00 33 1016.3
20260503181056 59 303 5.0 11.0 0.00 0.00 0.00 39 1016.3
20260503180556 60 330 4.0 12.0 0.00 0.00 0.00 37 1016.5
20260503180056 61 321 2.0 9.0 0.00 0.00 0.00 40 1016.5
20260503175556 58 209 3.0 7.0 0.00 0.00 0.00 34 1016.5
20260503175056 60 260 4.0 9.0 0.00 0.00 0.00 34 1016.6
20260503174556 58 9 4.0 10.0 0.00 0.00 0.00 36 1016.5
20260503174056 59 294 5.0 7.0 0.00 0.00 0.00 37 1016.7
20260503173556 59 331 5.0 13.0 0.00 0.00 0.00 38 1016.7
20260503173056 59 174 5.0 11.0 0.00 0.00 0.00 37 1016.7
20260503172556 57 271 7.0 10.0 0.00 0.00 0.00 38 1016.7
20260503172056 57 341 5.0 12.0 0.00 0.00 0.00 37 1016.8
20260503171556 58 355 3.0 12.0 0.00 0.00 0.00 39 1016.9
20260503171056 57 300 4.0 8.0 0.00 0.00 0.00 39 1017.0
20260503170556 57 265 4.0 12.0 0.00 0.00 0.00 36 1017.0
20260503150556 53 289 7.0 11.0 0.00 0.00 0.00 44 1017.8
20260503131056 48 346 9.0 15.0 0.00 0.00 0.00 52 1018.0
20260503130556 48 9 8.0 19.0 0.00 0.00 0.00 54 1018.3
20260503110556 38 297 1.0 2.0 0.00 0.00 0.00 79 1017.0
20260503081557 39 355 2.0 4.0 0.00 0.00 0.00 70 1015.2
20260503081057 40 20 2.0 3.0 0.00 0.00 0.00 71 1015.2
20260503080557 39 355 1.0 4.0 0.00 0.00 0.00 71 1015.2
20260503072557 41 348 4.0 5.0 0.00 0.00 0.00 68 1015.0
20260503072057 41 340 4.0 10.0 0.00 0.00 0.00 68 1015.0
20260503071557 41 0 3.0 8.0 0.00 0.00 0.00 68 1014.9
20260503071057 41 344 3.0 5.0 0.00 0.00 0.00 68 1014.8
20260503070557 41 331 3.0 6.0 0.00 0.00 0.00 68 1014.8